TimeCST,TemperatureF,Dew PointF,Humidity,Sea Level PressureIn,VisibilityMPH,Wind Direction,Wind SpeedMPH,Gust SpeedMPH,PrecipitationIn,Events,Conditions,WindDirDegrees,DateUTC
12:51 AM,37.9,30.0,73,30.48,10.0,NNW,9.2,-,N/A,,Clear,340,2013-01-18 06:51:00
1:51 AM,37.0,30.0,76,30.49,10.0,North,9.2,-,N/A,,Clear,360,2013-01-18 07:51:00
2:51 AM,36.0,30.0,79,30.49,10.0,North,5.8,-,N/A,,Clear,10,2013-01-18 08:51:00
3:51 AM,34.0,28.0,79,30.48,10.0,NNE,5.8,-,N/A,,Clear,20,2013-01-18 09:51:00
4:51 AM,33.1,28.0,82,30.49,10.0,NNE,5.8,-,N/A,,Clear,20,2013-01-18 10:51:00
5:51 AM,32.0,28.0,85,30.48,10.0,NNE,6.9,-,N/A,,Clear,20,2013-01-18 11:51:00
6:51 AM,30.9,27.0,85,30.50,10.0,North,6.9,-,N/A,,Clear,10,2013-01-18 12:51:00
7:51 AM,32.0,26.6,80,30.51,10.0,NNE,3.5,-,N/A,,Clear,20,2013-01-18 13:51:00
8:51 AM,45.0,35.1,68,30.51,10.0,NE,5.8,-,N/A,,Clear,50,2013-01-18 14:51:00
9:51 AM,52.0,34.0,50,30.52,10.0,East,10.4,-,N/A,,Clear,90,2013-01-18 15:51:00
10:51 AM,59.0,34.0,39,30.51,10.0,SE,9.2,-,N/A,,Clear,140,2013-01-18 16:51:00
11:51 AM,60.1,33.1,36,30.48,10.0,SE,9.2,-,N/A,,Clear,130,2013-01-18 17:51:00
12:51 PM,62.1,32.0,32,30.43,10.0,South,9.2,-,N/A,,Clear,190,2013-01-18 18:51:00
1:51 PM,64.0,32.0,30,30.38,10.0,South,6.9,-,N/A,,Clear,170,2013-01-18 19:51:00
2:51 PM,64.0,32.0,30,30.35,10.0,SW,6.9,-,N/A,,Clear,220,2013-01-18 20:51:00
3:51 PM,64.0,32.0,30,30.33,10.0,SSE,6.9,-,N/A,,Clear,160,2013-01-18 21:51:00
4:51 PM,64.0,32.0,30,30.33,10.0,South,4.6,-,N/A,,Clear,170,2013-01-18 22:51:00
5:51 PM,59.0,33.1,38,30.34,10.0,South,4.6,-,N/A,,Clear,170,2013-01-18 23:51:00
6:51 PM,55.9,33.1,42,30.35,10.0,SE,4.6,-,N/A,,Clear,130,2013-01-19 00:51:00
7:51 PM,50.0,33.1,52,30.35,10.0,SE,4.6,-,N/A,,Clear,130,2013-01-19 01:51:00
8:51 PM,44.1,28.0,53,30.35,10.0,Calm,Calm,-,N/A,,Clear,0,2013-01-19 02:51:00
9:51 PM,39.2,28.4,65,30.35,10.0,Calm,Calm,-,N/A,,Clear,0,2013-01-19 03:51:00
10:51 PM,42.1,30.9,65,30.32,10.0,SE,3.5,-,N/A,,Clear,140,2013-01-19 04:51:00
11:51 PM,42.1,30.9,65,30.32,10.0,Calm,Calm,-,N/A,,Clear,0,2013-01-19 05:51:00